When you browse on this site, cookies collect data to enhance your experience and personalize the content and advertising you see.
Visit our Privacy Policy to learn more. By continuing to use the site, you agree to this use of cookies and data.
  • In Lithuania
  • List of Countries
  • For 7 days
  • Water Temperature
  • Satellite Maps
  • Weather Map
  • Weather Widgets
  • user-avatar
    Login

    Hourly Weather Sogulyakin

    Today, 21 February, Thursday

    Time Temperature Precipitation Wind Pressure Humidity
    00:00 0°C° 0 mm 1 mps 754 mmHg 70%
    01:00 0°C° 0 mm 1 mps 754 mmHg 71%
    02:00 0°C° 0 mm 1 mps 754 mmHg 72%
    03:00 0°C° 0 mm 1 mps 753 mmHg 74%
    04:00 0°C° 0 mm 1 mps 753 mmHg 71%
    05:00 0°C° 0 mm 1 mps 753 mmHg 68%
    06:00 -2°C° 0 mm 2 mps 753 mmHg 64%
    07:00 +1°C° 0 mm 1 mps 753 mmHg 57%
    08:00 +2°C° 0 mm 1 mps 753 mmHg 50%
    09:00 +3°C° 0 mm 1 mps 752 mmHg 42%
    10:00 +5°C° 0 mm 1 mps 752 mmHg 38%
    11:00 +6°C° 0 mm 1 mps 752 mmHg 34%
    12:00 +7°C° 0 mm 0 mps 752 mmHg 30%
    13:00 +8°C° 0 mm 1 mps 751 mmHg 30%
    14:00 +9°C° 0 mm 1 mps 751 mmHg 30%
    15:00 +10°C° 0 mm 1 mps 751 mmHg 30%
    16:00 +8°C° 0 mm 1 mps 751 mmHg 37%
    17:00 +7°C° 0 mm 1 mps 751 mmHg 43%
    18:00 +6°C° 0 mm 1 mps 751 mmHg 50%
    19:00 +5°C° 0 mm 1 mps 751 mmHg 51%
    20:00 +5°C° 0 mm 1 mps 752 mmHg 52%
    21:00 +4°C° 0 mm 2 mps 752 mmHg 53%
    22:00 +4°C° 0 mm 2 mps 752 mmHg 51%
    23:00 +4°C° 0 mm 2 mps 752 mmHg 50%

    Tomorrow, 22 February, Friday

    Time Temperature Precipitation Wind Pressure Humidity
    00:00 +4°C° 0 mm 2 mps 752 mmHg 49%
    01:00 +4°C° 0 mm 2 mps 752 mmHg 54%
    02:00 +4°C° 0 mm 2 mps 752 mmHg 58%
    03:00 +4°C° 0 mm 2 mps 752 mmHg 63%
    04:00 +3°C° 0 mm 2 mps 752 mmHg 68%
    05:00 +3°C° 0 mm 2 mps 752 mmHg 73%
    06:00 +2°C° 0 mm 2 mps 752 mmHg 78%
    07:00 +2°C° 0 mm 3 mps 752 mmHg 75%
    08:00 +3°C° 0 mm 4 mps 753 mmHg 72%
    09:00 +4°C° 0 mm 4 mps 753 mmHg 69%
    10:00 +5°C° 0 mm 4 mps 753 mmHg 64%
    11:00 +5°C° 0 mm 4 mps 753 mmHg 58%
    12:00 +6°C° 0 mm 4 mps 754 mmHg 52%
    13:00 +6°C° 0 mm 4 mps 753 mmHg 50%
    14:00 +7°C° 0 mm 3 mps 753 mmHg 47%
    15:00 +8°C° 0 mm 2 mps 753 mmHg 44%
    16:00 +7°C° 0 mm 2 mps 754 mmHg 47%
    17:00 +6°C° 0 mm 2 mps 754 mmHg 50%
    18:00 +6°C° 0 mm 1 mps 754 mmHg 54%
    19:00 +5°C° 0 mm 2 mps 754 mmHg 55%
    20:00 +4°C° 0 mm 2 mps 755 mmHg 57%
    21:00 +3°C° 0 mm 3 mps 755 mmHg 59%
    22:00 +3°C° 0 mm 3 mps 755 mmHg 64%
    23:00 +2°C° 0 mm 3 mps 754 mmHg 69%

    Day after tomorrow, 23 February, Saturday

    Time Temperature Precipitation Wind Pressure Humidity
    00:00 +2°C° 0 mm 3 mps 754 mmHg 75%
    01:00 +1°C° 0 mm 3 mps 754 mmHg 78%
    02:00 +1°C° 0 mm 3 mps 754 mmHg 80%
    03:00 0°C° 0 mm 4 mps 754 mmHg 83%
    04:00 +1°C° 0 mm 3 mps 754 mmHg 85%
    05:00 0°C° 0 mm 3 mps 754 mmHg 87%
    06:00 0°C° 0 mm 3 mps 754 mmHg 89%
    07:00 0°C° 0 mm 4 mps 755 mmHg 85%
    08:00 +1°C° 0 mm 5 mps 755 mmHg 81%
    09:00 +2°C° 0 mm 6 mps 756 mmHg 77%
    10:00 +4°C° 0 mm 6 mps 756 mmHg 72%
    11:00 +5°C° 0 mm 6 mps 755 mmHg 67%
    12:00 +7°C° 0 mm 6 mps 755 mmHg 62%
    13:00 +8°C° 0 mm 6 mps 755 mmHg 59%
    14:00 +9°C° 0 mm 6 mps 755 mmHg 56%
    15:00 +9°C° 0 mm 6 mps 755 mmHg 53%
    16:00 +8°C° 0 mm 6 mps 755 mmHg 56%
    17:00 +7°C° 0 mm 5 mps 755 mmHg 59%
    18:00 +6°C° 0 mm 5 mps 756 mmHg 62%
    19:00 +6°C° 0 mm 5 mps 756 mmHg 65%
    20:00 +5°C° 0 mm 4 mps 757 mmHg 68%
    21:00 +4°C° 0 mm 4 mps 757 mmHg 71%
    22:00 +3°C° 0 mm 4 mps 757 mmHg 75%
    23:00 +3°C° 0 mm 3 mps 757 mmHg 79%

    24 February, Sunday

    Time Temperature Precipitation Wind Pressure Humidity
    00:00 +2°C° 0 mm 3 mps 757 mmHg 83%
    01:00 +2°C° 0 mm 3 mps 757 mmHg 86%
    02:00 +1°C° 0 mm 3 mps 757 mmHg 88%
    03:00 +2°C° 0 mm 2 mps 758 mmHg 90%
    04:00 +2°C° 0 mm 2 mps 758 mmHg 91%
    05:00 +2°C° 0 mm 1 mps 758 mmHg 92%
    06:00 +2°C° 0 mm 1 mps 758 mmHg 93%
    07:00 +3°C° 0 mm 1 mps 758 mmHg 89%
    08:00 +4°C° 0 mm 1 mps 759 mmHg 85%
    09:00 +3°C° 0 mm 0 mps 759 mmHg 81%
    10:00 +6°C° 0 mm 1 mps 759 mmHg 75%
    11:00 +7°C° 0 mm 1 mps 758 mmHg 68%
    12:00 +8°C° 0 mm 1 mps 758 mmHg 62%
    13:00 +8°C° 0 mm 2 mps 758 mmHg 58%
    14:00 +9°C° 0 mm 2 mps 758 mmHg 55%
    15:00 +10°C° 0 mm 2 mps 758 mmHg 51%
    16:00 +9°C° 0 mm 2 mps 758 mmHg 55%
    17:00 +9°C° 0 mm 1 mps 758 mmHg 59%
    18:00 +8°C° 0 mm 1 mps 758 mmHg 63%
    19:00 +8°C° 0 mm 1 mps 759 mmHg 65%
    20:00 +7°C° 0 mm 1 mps 759 mmHg 67%
    21:00 +7°C° 0 mm 1 mps 759 mmHg 69%
    22:00 +6°C° 0.1 mm 0 mps 759 mmHg 70%
    23:00 +6°C° 0.1 mm 0 mps 759 mmHg 71%

    25 February, Monday

    Time Temperature Precipitation Wind Pressure Humidity
    00:00 +6°C° 0.1 mm 0 mps 759 mmHg 73%
    01:00 +7°C° 0.1 mm 1 mps 759 mmHg 73%
    02:00 +7°C° 0.1 mm 1 mps 759 mmHg 74%
    03:00 +6°C° 0.1 mm 2 mps 759 mmHg 75%
    04:00 +5°C° 0.4 mm 2 mps 759 mmHg 79%
    05:00 +4°C° 0.4 mm 3 mps 759 mmHg 83%
    06:00 +3°C° 0.4 mm 4 mps 759 mmHg 86%
    07:00 +3°C° 0.7 mm 4 mps 759 mmHg 85%
    08:00 +3°C° 0.7 mm 4 mps 760 mmHg 85%
    09:00 +1°C° 0.7 mm 4 mps 760 mmHg 84%
    10:00 +1°C° 0.4 mm 4 mps 760 mmHg 83%
    11:00 +2°C° 0.4 mm 3 mps 759 mmHg 81%
    12:00 +2°C° 0.4 mm 3 mps 759 mmHg 80%
    13:00 +3°C° 0.2 mm 3 mps 759 mmHg 78%
    14:00 +3°C° 0.2 mm 3 mps 758 mmHg 76%
    15:00 +4°C° 0.2 mm 3 mps 758 mmHg 74%
    16:00 +3°C° 0 mm 3 mps 757 mmHg 76%
    17:00 +3°C° 0 mm 3 mps 757 mmHg 78%
    18:00 +4°C° 0 mm 2 mps 757 mmHg 80%
    19:00 +2°C° 0 mm 3 mps 756 mmHg 80%
    20:00 +2°C° 0 mm 3 mps 756 mmHg 80%
    21:00 +1°C° 0 mm 3 mps 756 mmHg 80%
    22:00 +1°C° 0 mm 3 mps 755 mmHg 81%
    23:00 0°C° 0 mm 3 mps 754 mmHg 83%

    26 February, Tuesday

    Time Temperature Precipitation Wind Pressure Humidity
    00:00 0°C° 0 mm 3 mps 754 mmHg 84%
    01:00 0°C° 0 mm 3 mps 753 mmHg 84%
    02:00 -1°C° 0 mm 3 mps 752 mmHg 83%
    03:00 -1°C° 0 mm 3 mps 752 mmHg 82%
    04:00 -1°C° 0 mm 3 mps 751 mmHg 82%
    05:00 -2°C° 0 mm 4 mps 750 mmHg 83%
    06:00 -2°C° 0 mm 4 mps 750 mmHg 83%
    07:00 -1°C° 0 mm 5 mps 749 mmHg 77%
    08:00 -1°C° 0 mm 6 mps 748 mmHg 70%
    09:00 0°C° 0 mm 7 mps 748 mmHg 63%
    10:00 +2°C° 0 mm 7 mps 747 mmHg 59%
    11:00 +4°C° 0 mm 8 mps 746 mmHg 54%
    12:00 +5°C° 0 mm 8 mps 745 mmHg 49%
    13:00 +5°C° 0 mm 8 mps 745 mmHg 51%
    14:00 +5°C° 0 mm 8 mps 744 mmHg 53%
    15:00 +5°C° 0 mm 8 mps 744 mmHg 55%
    16:00 +4°C° 0 mm 7 mps 744 mmHg 59%
    17:00 +3°C° 0 mm 6 mps 744 mmHg 62%
    18:00 +2°C° 0 mm 5 mps 744 mmHg 66%
    19:00 +1°C° 0.1 mm 4 mps 744 mmHg 67%
    20:00 +2°C° 0.1 mm 3 mps 744 mmHg 67%
    21:00 +2°C° 0.1 mm 2 mps 744 mmHg 68%
    22:00 +2°C° 0.1 mm 2 mps 743 mmHg 69%
    23:00 +1°C° 0.1 mm 3 mps 743 mmHg 70%
    Show more